Location: Hertford
(51.7958°N, 0.0812°W)
Time: 23:43:09
(UTC+00:00)

ISS - Visible Passes

Search period start: 30 November 2023 00:00
Search period end: 10 December 2023 00:00
Orbit: 416 x 417 km, 51.6° (Epoch: 30 November)

Date Brightness Start Highest point End Pass type
(mag) Time Alt. Az. Time Alt. Az. Time Alt. Az.
30 Nov -3.7 16:26:59 10° W 16:30:21 89° SSW 16:33:43 10° E visible
30 Nov -3.0 18:03:45 10° W 18:07:00 48° SSW 18:07:41 40° SSE visible
01 Dec -3.4 17:15:20 10° W 17:18:40 62° SSW 17:21:30 13° ESE visible
01 Dec -1.2 18:52:30 10° W 18:54:25 19° SW 18:54:25 19° SW visible
02 Dec -3.6 16:26:53 10° W 16:30:14 75° SSW 16:33:35 10° ESE visible
02 Dec -1.8 18:03:48 10° W 18:06:42 27° SSW 18:08:21 18° SSE visible
03 Dec -2.3 17:15:11 10° W 17:18:19 37° SSW 17:21:27 10° SE visible
04 Dec -2.8 16:26:35 10° W 16:29:52 50° SSW 16:33:07 10° SE visible
04 Dec -0.8 18:04:09 10° WSW 18:06:02 14° SW 18:07:53 10° S visible
05 Dec -1.1 17:15:05 10° W 17:17:38 20° SW 17:20:11 10° SSE visible
